Location: Monfort
(47.1967°N, 0.2115°W)
Time: 12:13:53
(UTC+00:00)

Cosmos 1340 - Pass Details

Date: 24 October 2020
Orbit: 501 x 504 km, 81.2° (Epoch: 28 November)

Event Time Altitude Azimuth Distance (km) Brightness Sun altitude
Rises 17:20:07 0° 6° (N) 2,617 6.1 -4.7°
Reaches altitude 10° 17:23:13 10° 34° (NNE) 1,726 4.9 -5.2°
Maximum altitude 17:25:09 13° 64° (ENE) 1,515 4.4 -5.5°
Drops below altitude 10° 17:27:04 10° 95° (E) 1,720 4.7 -5.8°
Sets 17:30:08 0° 123° (ESE) 2,599 5.8 -6.4°
